EW6329 Weather Reports


Display with metric or nautical units.
time (UTC)temp
F
wind
direction
speed
MPH
gust
MPH
rain 1hr
in
rain 24hr
in
rain mn
in
humidity
%
barometer
mb
20260906151606 85 264 0.0 1.0 0.00 0.00 0.00 70 1010.5
20260906150011 83 264 0.0 0.0 0.00 0.00 0.00 79 1010.5
20260906144522 82 264 0.0 2.0 0.00 0.00 0.00 79 1010.6
20260906143035 81 264 0.0 0.0 0.00 0.00 0.00 83 1010.6
20260906141558 80 264 0.0 0.0 0.00 0.00 0.00 84 1010.8
20260906140107 79 264 0.0 0.0 0.00 0.00 0.00 86 1010.8
20260906134513 78 264 0.0 0.0 0.00 0.00 0.00 87 1010.8
20260906133027 78 266 0.0 0.0 0.00 0.00 0.00 87 1011.0
20260906131539 77 266 0.0 2.0 0.00 0.00 0.00 88 1011.0
20260906130057 77 266 0.0 0.0 0.00 0.00 0.00 88 1011.0
20260906124503 77 299 0.0 2.0 0.00 0.00 0.00 88 1011.1
20260906123028 77 299 0.0 2.0 0.00 0.00 0.00 88 1011.0
20260906121529 77 299 0.0 2.0 0.00 0.00 0.00 88 1010.9
20260906120041 77 299 0.0 2.0 0.00 0.00 0.00 87 1011.0
20260906114601 77 299 0.0 0.0 0.00 0.00 0.00 87 1010.3
20260906113102 77 299 0.0 0.0 0.00 0.00 0.00 87 1010.1
20260906111512 77 299 0.0 0.0 0.00 0.00 0.00 86 1009.9
20260906110024 77 299 0.0 0.0 0.00 0.00 0.00 86 1009.6
20260906104542 78 299 0.0 0.0 0.00 0.00 0.00 86 1009.4
20260906103053 78 299 0.0 0.0 0.00 0.00 0.00 85 1009.3
20260906101606 78 299 0.0 0.0 0.00 0.00 0.00 85 1009.3
20260906100024 78 299 0.0 0.0 0.00 0.00 0.00 84 1009.3
20260906094532 78 299 0.0 0.0 0.00 0.00 0.00 83 1009.3
20260906093042 79 299 0.0 0.0 0.00 0.00 0.00 82 1009.2
20260906091553 79 299 0.0 0.0 0.00 0.00 0.00 82 1009.1
20260906090004 79 299 0.0 0.0 0.00 0.00 0.00 82 1009.2
20260906084517 79 299 0.0 0.0 0.00 0.00 0.00 81 1009.2
20260906083030 80 299 0.0 0.0 0.00 0.00 0.00 81 1009.0
20260906081543 80 299 0.0 0.0 0.00 0.00 0.00 81 1009.1
20260906080059 80 299 0.0 0.0 0.00 0.00 0.00 81 1009.2
20260906074507 80 299 0.0 0.0 0.00 0.00 0.00 81 1009.1
20260906073023 79 298 0.0 0.0 0.00 0.00 0.00 81 1009.1
20260906071533 80 299 0.0 0.0 0.00 0.00 0.00 81 1009.2
20260906070046 80 299 0.0 0.0 0.00 0.00 0.00 81 1009.1
20260906064600 80 299 0.0 0.0 0.00 0.00 0.00 80 1009.0
20260906063010 80 299 0.0 0.0 0.00 0.00 0.00 80 1009.1
20260906061524 80 299 0.0 0.0 0.00 0.00 0.00 80 1009.3
20260906060037 81 299 0.0 0.0 0.00 0.00 0.00 80 1009.3
20260906054603 81 299 0.0 0.0 0.00 0.00 0.00 80 1009.4
20260906053104 81 298 0.0 0.0 0.00 0.00 0.00 79 1009.4
20260906051512 81 298 0.0 0.0 0.00 0.00 0.00 78 1009.3
20260906050029 82 298 0.0 0.0 0.00 0.00 0.00 78 1009.3
20260906044537 82 299 0.0 0.0 0.00 0.00 0.00 77 1009.3
20260906043050 82 298 0.0 0.0 0.00 0.00 0.00 75 1009.1
20260906041604 83 298 0.0 0.0 0.00 0.00 0.00 73 1009.2
20260906040015 83 298 0.0 0.0 0.00 0.00 0.00 71 1009.2
20260906034536 84 298 0.0 0.0 0.00 0.00 0.00 69 1009.2
20260906033044 84 298 0.0 0.0 0.00 0.00 0.00 69 1009.3
20260906031612 85 298 0.0 0.0 0.00 0.00 0.00 69 1009.2
20260906030010 85 298 0.0 0.0 0.00 0.00 0.00 69 1009.1
20260906024542 85 298 0.0 0.0 0.00 0.00 0.00 68 1009.2
20260906023036 86 298 0.0 0.0 0.00 0.00 0.00 67 1009.1
20260906021546 87 298 0.0 0.0 0.00 0.00 0.00 66 1009.0
20260906020101 87 298 0.0 0.0 0.00 0.00 0.00 65 1008.8
20260906014516 88 298 0.0 0.0 0.00 0.00 0.00 63 1008.7
20260906013022 89 298 0.0 0.0 0.00 0.00 0.00 62 1008.5
20260906011535 90 298 0.0 0.0 0.00 0.00 0.00 59 1008.2
20260906010052 91 298 0.0 0.0 0.00 0.00 0.00 58 1008.1
20260906004604 92 298 0.0 0.0 0.00 0.00 0.00 55 1008.1
20260906003012 93 298 0.0 0.0 0.00 0.00 0.00 54 1008.0
20260906001531 93 298 0.0 0.0 0.00 0.00 0.00 54 1008.1
20260906000048 93 298 0.0 0.0 0.00 0.00 0.00 53 1008.1
20260905234559 93 298 0.0 0.0 0.00 0.00 0.00 54 1008.1
20260905233001 93 298 0.0 0.0 0.00 0.00 0.00 54 1008.1
20260905231515 94 298 0.0 0.0 0.00 0.00 0.00 51 1008.1
20260905230033 94 298 0.0 0.0 0.00 0.00 0.00 49 1008.3
20260905224541 95 297 0.0 1.0 0.00 0.00 0.00 51 1008.2
20260905223054 95 298 0.0 1.0 0.00 0.00 0.00 48 1008.2
20260905221506 95 298 0.0 2.0 0.00 0.00 0.00 50 1008.3
20260905220022 96 298 0.0 2.0 0.00 0.00 0.00 48 1008.4
20260905214531 96 298 0.0 2.0 0.00 0.00 0.00 49 1008.4
20260905213047 97 298 0.0 2.0 0.00 0.00 0.00 48 1008.4
20260905211609 98 298 0.0 2.0 0.00 0.00 0.00 46 1008.4
20260905210010 98 298 0.0 2.0 0.00 0.00 0.00 47 1008.6
20260905204521 97 297 0.0 2.0 0.00 0.00 0.00 49 1008.8
20260905203036 97 298 0.0 2.0 0.00 0.00 0.00 48 1009.0
20260905201553 97 304 0.0 2.0 0.00 0.00 0.00 45 1009.3
20260905200120 98 304 0.0 2.0 0.00 0.00 0.00 46 1009.3
20260905194513 99 304 0.0 3.0 0.00 0.00 0.00 43 1009.4
20260905193025 99 304 0.0 2.0 0.00 0.00 0.00 43 1009.7
20260905191537 99 304 0.0 2.0 0.00 0.00 0.00 44 1009.9
20260905190050 98 304 0.0 2.0 0.00 0.00 0.00 45 1010.0
20260905184609 99 304 0.0 2.0 0.00 0.00 0.00 45 1010.2
20260905183015 98 207 0.0 4.0 0.00 0.00 0.00 46 1010.4
20260905181526 98 300 0.0 2.0 0.00 0.00 0.00 46 1010.5
20260905180038 97 287 0.0 2.0 0.00 0.00 0.00 47 1010.7
20260905174555 96 286 0.0 3.0 0.00 0.00 0.00 49 1010.8
20260905173106 96 280 0.0 3.0 0.00 0.00 0.00 48 1010.8
20260905171510 95 280 0.0 2.0 0.00 0.00 0.00 51 1011.1
20260905170021 94 276 0.0 2.0 0.00 0.00 0.00 54 1011.2
20260905164534 93 276 0.0 2.0 0.00 0.00 0.00 56 1011.4
20260905163047 92 276 0.0 2.0 0.00 0.00 0.00 58 1011.6
20260905161558 92 275 1.0 2.0 0.00 0.00 0.00 60 1011.7
20260905160007 90 276 0.0 2.0 0.00 0.00 0.00 64 1011.9
20260905154519 89 276 0.0 1.0 0.00 0.00 0.00 64 1011.8
20260905153031 88 276 0.0 2.0 0.00 0.00 0.00 67 1011.9